Location: G�migny
(47.9646°N, 1.6950°E)
Time: 00:14:34
(UTC+00:00)

Ariane Rocket - Pass Details

Date: 23 October 2019
Orbit: 760 x 770 km, 98.8° (Epoch: 19 November)

Event Time Altitude Azimuth Distance (km) Brightness Sun altitude
Exits shadow 18:02:12 - 139° (SE) 3,024 5.7 -12.6°
Reaches altitude 10° 18:04:05 10° 133° (SE) 2,311 5.1 -12.9°
Maximum altitude 18:08:46 38° 66° (ENE) 1,159 3.5 -13.7°
Drops below altitude 10° 18:13:29 10° 359° (N) 2,325 5.5 -14.5°
Sets 18:15:55 0° 352° (N) 3,256 6.4 -14.9°
